Year,Month,Day,Hour,Minute,Value (Times are PST for temperature in C)
2021,08,16,00,00,17.20
2021,08,16,00,01,17.30
2021,08,16,00,02,17.30
2021,08,16,00,03,17.30
2021,08,16,00,04,17.30
2021,08,16,00,05,17.30
2021,08,16,00,06,17.40
2021,08,16,00,07,17.40
2021,08,16,00,08,17.40
2021,08,16,00,09,17.40
2021,08,16,00,10,17.40
2021,08,16,00,11,17.40
2021,08,16,00,12,17.50
2021,08,16,00,13,17.60
2021,08,16,00,14,17.60
2021,08,16,00,15,17.60
2021,08,16,00,16,17.70
2021,08,16,00,17,17.70
2021,08,16,00,18,17.70
2021,08,16,00,19,17.70
2021,08,16,00,20,17.70
2021,08,16,00,21,17.80
2021,08,16,00,22,17.80
2021,08,16,00,23,17.80
2021,08,16,00,24,17.80
2021,08,16,00,25,17.80
2021,08,16,00,26,17.80
2021,08,16,00,27,17.80
2021,08,16,00,28,17.80
2021,08,16,00,29,17.80
2021,08,16,00,30,17.80
2021,08,16,00,31,17.80
2021,08,16,00,32,17.80
2021,08,16,00,33,17.80
2021,08,16,00,34,17.80
2021,08,16,00,35,17.80
2021,08,16,00,36,17.80
2021,08,16,00,37,17.70
2021,08,16,00,38,17.70
2021,08,16,00,39,17.70
2021,08,16,00,40,17.70
2021,08,16,00,41,17.70
2021,08,16,00,42,17.70
2021,08,16,00,43,17.60
2021,08,16,00,44,17.60
2021,08,16,00,45,17.60
2021,08,16,00,46,17.60
2021,08,16,00,47,17.50
2021,08,16,00,48,17.40
2021,08,16,00,49,17.30
2021,08,16,00,50,17.30
2021,08,16,00,51,17.20
2021,08,16,00,52,17.20
2021,08,16,00,53,17.10
2021,08,16,00,54,17.10
2021,08,16,00,55,17.10
2021,08,16,00,56,17.00
2021,08,16,00,57,17.00
2021,08,16,00,58,17.00
2021,08,16,00,59,17.00
2021,08,16,01,00,16.90
2021,08,16,01,01,16.90
2021,08,16,01,02,16.90
2021,08,16,01,03,16.90
2021,08,16,01,04,16.90
2021,08,16,01,05,16.90
2021,08,16,01,06,16.90
2021,08,16,01,07,16.80
2021,08,16,01,08,16.80
2021,08,16,01,09,16.80
2021,08,16,01,10,16.80
2021,08,16,01,11,16.80
2021,08,16,01,12,16.80
2021,08,16,01,13,16.80
2021,08,16,01,14,16.80
2021,08,16,01,15,16.80
2021,08,16,01,16,16.70
2021,08,16,01,17,16.70
2021,08,16,01,18,16.60
2021,08,16,01,19,16.60
2021,08,16,01,20,16.50
2021,08,16,01,21,16.40
2021,08,16,01,22,16.30
2021,08,16,01,23,16.30
2021,08,16,01,24,16.30
2021,08,16,01,25,16.20
2021,08,16,01,26,16.20
2021,08,16,01,27,16.20
2021,08,16,01,28,16.20
2021,08,16,01,29,16.20
2021,08,16,01,30,16.20
2021,08,16,01,31,16.10
2021,08,16,01,32,16.10
2021,08,16,01,33,16.10
2021,08,16,01,34,16.10
2021,08,16,01,35,16.10
2021,08,16,01,36,16.10
2021,08,16,01,37,16.10
2021,08,16,01,38,16.10
2021,08,16,01,39,16.10
2021,08,16,01,40,16.10
2021,08,16,01,41,16.10
2021,08,16,01,42,16.10
2021,08,16,01,43,16.10
2021,08,16,01,44,16.20
2021,08,16,01,45,16.20
2021,08,16,01,46,16.20
2021,08,16,01,47,16.20
2021,08,16,01,48,16.20
2021,08,16,01,49,16.30
2021,08,16,01,50,16.30
2021,08,16,01,51,16.30
2021,08,16,01,52,16.30
2021,08,16,01,53,16.30
2021,08,16,01,54,16.30
2021,08,16,01,55,16.30
2021,08,16,01,56,16.30
2021,08,16,01,57,16.30
2021,08,16,01,58,16.20
2021,08,16,01,59,16.20
2021,08,16,02,00,16.10
2021,08,16,02,01,16.10
2021,08,16,02,02,16.00
2021,08,16,02,03,16.00
2021,08,16,02,04,16.00
2021,08,16,02,05,15.90
2021,08,16,02,06,15.90
2021,08,16,02,07,15.90
2021,08,16,02,08,15.90
2021,08,16,02,09,15.90
2021,08,16,02,10,15.90
2021,08,16,02,11,15.90
2021,08,16,02,12,15.90
2021,08,16,02,13,15.90
2021,08,16,02,14,15.90
2021,08,16,02,15,15.90
2021,08,16,02,16,15.90
2021,08,16,02,17,15.90
2021,08,16,02,18,15.90
2021,08,16,02,19,15.90
2021,08,16,02,20,16.00
2021,08,16,02,21,16.00
2021,08,16,02,22,16.00
2021,08,16,02,23,16.00
2021,08,16,02,24,16.00
2021,08,16,02,25,16.00
2021,08,16,02,26,16.00
2021,08,16,02,27,16.00
2021,08,16,02,28,16.00
2021,08,16,02,29,16.00
2021,08,16,02,30,15.90
2021,08,16,02,31,15.90
2021,08,16,02,32,15.90
2021,08,16,02,33,15.90
2021,08,16,02,34,15.90
2021,08,16,02,35,15.90
2021,08,16,02,36,15.90
2021,08,16,02,37,15.90
2021,08,16,02,38,15.90
2021,08,16,02,39,15.90
2021,08,16,02,40,15.90
2021,08,16,02,41,15.90
2021,08,16,02,42,15.90
2021,08,16,02,43,15.90
2021,08,16,02,44,15.80
2021,08,16,02,45,15.80
2021,08,16,02,46,15.80
2021,08,16,02,47,15.70
2021,08,16,02,48,15.70
2021,08,16,02,49,15.60
2021,08,16,02,50,15.50
2021,08,16,02,51,15.40
2021,08,16,02,52,15.30
2021,08,16,02,53,15.30
2021,08,16,02,54,15.30
2021,08,16,02,55,15.30
2021,08,16,02,56,15.30
2021,08,16,02,57,15.30
2021,08,16,02,58,15.30
2021,08,16,02,59,15.20
2021,08,16,03,00,15.20
2021,08,16,03,01,15.10
2021,08,16,03,02,15.10
2021,08,16,03,03,15.00
2021,08,16,03,04,14.90
2021,08,16,03,05,14.90
2021,08,16,03,06,14.90
2021,08,16,03,07,14.80
2021,08,16,03,08,14.70
2021,08,16,03,09,14.70
2021,08,16,03,10,14.70
2021,08,16,03,11,14.70
2021,08,16,03,12,14.70
2021,08,16,03,13,14.70
2021,08,16,03,14,14.70
2021,08,16,03,15,14.70
2021,08,16,03,16,14.70
2021,08,16,03,17,14.70
2021,08,16,03,18,14.70
2021,08,16,03,19,14.70
2021,08,16,03,20,14.80
2021,08,16,03,21,14.80
2021,08,16,03,22,14.70
2021,08,16,03,23,14.70
2021,08,16,03,24,14.70
2021,08,16,03,25,14.60
2021,08,16,03,26,14.50
2021,08,16,03,27,14.50
2021,08,16,03,28,14.40
2021,08,16,03,29,14.40
2021,08,16,03,30,14.30
2021,08,16,03,31,14.30
2021,08,16,03,32,14.30
2021,08,16,03,33,14.30
2021,08,16,03,34,14.30
2021,08,16,03,35,14.30
2021,08,16,03,36,14.30
2021,08,16,03,37,14.30
2021,08,16,03,38,14.30
2021,08,16,03,39,14.30
2021,08,16,03,40,14.20
2021,08,16,03,41,14.20
2021,08,16,03,42,14.10
2021,08,16,03,43,14.10
2021,08,16,03,44,14.10
2021,08,16,03,45,14.10
2021,08,16,03,46,14.10
2021,08,16,03,47,14.10
2021,08,16,03,48,14.10
2021,08,16,03,49,14.20
2021,08,16,03,50,14.20
2021,08,16,03,51,14.20
2021,08,16,03,52,14.20
2021,08,16,03,53,14.20
2021,08,16,03,54,14.20
2021,08,16,03,55,14.20
2021,08,16,03,56,14.20
2021,08,16,03,57,14.20
2021,08,16,03,58,14.20
2021,08,16,03,59,14.20
2021,08,16,04,00,14.20
2021,08,16,04,01,14.20
2021,08,16,04,02,14.20
2021,08,16,04,03,14.20
2021,08,16,04,04,14.20
2021,08,16,04,05,14.20
2021,08,16,04,06,14.20
2021,08,16,04,07,14.10
2021,08,16,04,08,14.10
2021,08,16,04,09,14.10
2021,08,16,04,10,14.10
2021,08,16,04,11,14.10
2021,08,16,04,12,14.10
2021,08,16,04,13,14.10
2021,08,16,04,14,14.10
2021,08,16,04,15,14.20
2021,08,16,04,16,14.20
2021,08,16,04,17,14.20
2021,08,16,04,18,14.20
2021,08,16,04,19,14.20
2021,08,16,04,20,14.20
2021,08,16,04,21,14.20
2021,08,16,04,22,14.20
2021,08,16,04,23,14.20
2021,08,16,04,24,14.30
2021,08,16,04,25,14.30
2021,08,16,04,26,14.30
2021,08,16,04,27,14.30
2021,08,16,04,28,14.30
2021,08,16,04,29,14.30
2021,08,16,04,30,14.30
2021,08,16,04,31,14.30
2021,08,16,04,32,14.30
2021,08,16,04,33,14.30
2021,08,16,04,34,14.30
2021,08,16,04,35,14.30
2021,08,16,04,36,14.30
2021,08,16,04,37,14.30
2021,08,16,04,38,14.30
2021,08,16,04,39,14.30
2021,08,16,04,40,14.30
2021,08,16,04,41,14.30
2021,08,16,04,42,14.30
2021,08,16,04,43,14.30
2021,08,16,04,44,14.30
2021,08,16,04,45,14.40
2021,08,16,04,46,14.40
2021,08,16,04,47,14.40
2021,08,16,04,48,14.40
2021,08,16,04,49,14.40
2021,08,16,04,50,14.40
2021,08,16,04,51,14.50
2021,08,16,04,52,14.50
2021,08,16,04,53,14.60
2021,08,16,04,54,14.60
2021,08,16,04,55,14.70
2021,08,16,04,56,14.70
2021,08,16,04,57,14.80
2021,08,16,04,58,15.10
2021,08,16,04,59,15.30
2021,08,16,05,00,15.40
2021,08,16,05,01,15.40
2021,08,16,05,02,15.50
2021,08,16,05,03,15.60
2021,08,16,05,04,15.60
2021,08,16,05,05,15.70
2021,08,16,05,06,15.70
2021,08,16,05,07,15.80
2021,08,16,05,08,15.80
2021,08,16,05,09,15.90
2021,08,16,05,10,16.00
2021,08,16,05,11,16.00
2021,08,16,05,12,16.10
2021,08,16,05,13,16.20
2021,08,16,05,14,16.30
2021,08,16,05,15,16.60
2021,08,16,05,16,16.80
2021,08,16,05,17,17.00
2021,08,16,05,18,17.20
2021,08,16,05,19,17.30
2021,08,16,05,20,17.40
2021,08,16,05,21,17.40
2021,08,16,05,22,17.50
2021,08,16,05,23,17.50
2021,08,16,05,24,17.60
2021,08,16,05,25,17.60
2021,08,16,05,26,17.70
2021,08,16,05,27,17.80
2021,08,16,05,28,17.90
2021,08,16,05,29,18.20
2021,08,16,05,30,18.30
2021,08,16,05,31,18.50
2021,08,16,05,32,18.60
2021,08,16,05,33,18.80
2021,08,16,05,34,18.90
2021,08,16,05,35,19.10
2021,08,16,05,36,19.20
2021,08,16,05,37,19.20
2021,08,16,05,38,19.30
2021,08,16,05,39,19.30
2021,08,16,05,40,19.40
2021,08,16,05,41,19.40
2021,08,16,05,42,19.50
2021,08,16,05,43,19.50
2021,08,16,05,44,19.60
2021,08,16,05,45,19.60
2021,08,16,05,46,19.60
2021,08,16,05,47,19.70
2021,08,16,05,48,19.70
2021,08,16,05,49,19.70
2021,08,16,05,50,19.70
2021,08,16,05,51,19.80
2021,08,16,05,52,19.70
2021,08,16,05,53,19.50
2021,08,16,05,54,19.20
2021,08,16,05,55,18.90
2021,08,16,05,56,18.60
2021,08,16,05,57,18.50
2021,08,16,05,58,18.40
2021,08,16,05,59,18.30
2021,08,16,06,00,18.10
2021,08,16,06,01,18.10
2021,08,16,06,02,18.10
2021,08,16,06,03,18.20
2021,08,16,06,04,18.20
2021,08,16,06,05,18.10
2021,08,16,06,06,18.20
2021,08,16,06,07,18.30
2021,08,16,06,08,18.50
2021,08,16,06,09,18.60
2021,08,16,06,10,18.80
2021,08,16,06,11,18.90
2021,08,16,06,12,19.00
2021,08,16,06,13,19.10
2021,08,16,06,14,19.20
2021,08,16,06,15,19.30
2021,08,16,06,16,19.40
2021,08,16,06,17,19.40
2021,08,16,06,18,19.50
2021,08,16,06,19,19.50
2021,08,16,06,20,19.60
2021,08,16,06,21,19.60
2021,08,16,06,22,19.60
2021,08,16,06,23,19.60
2021,08,16,06,24,19.60
2021,08,16,06,25,19.60
2021,08,16,06,26,19.60
2021,08,16,06,27,19.60
2021,08,16,06,28,19.60
2021,08,16,06,29,19.60
2021,08,16,06,30,19.60
2021,08,16,06,31,19.60
2021,08,16,06,32,19.60
2021,08,16,06,33,19.60
2021,08,16,06,34,19.60
2021,08,16,06,35,19.60
2021,08,16,06,36,19.60
2021,08,16,06,37,19.60
2021,08,16,06,38,19.60
2021,08,16,06,39,19.60
2021,08,16,06,40,19.60
2021,08,16,06,41,19.60
2021,08,16,06,42,19.50
2021,08,16,06,43,19.50
2021,08,16,06,44,19.50
2021,08,16,06,45,19.40
2021,08,16,06,46,19.40
2021,08,16,06,47,19.40
2021,08,16,06,48,19.30
2021,08,16,06,49,19.30
2021,08,16,06,50,19.20
2021,08,16,06,51,19.20
2021,08,16,06,52,19.10
2021,08,16,06,53,19.00
2021,08,16,06,54,18.90
2021,08,16,06,55,18.80
2021,08,16,06,56,18.70
2021,08,16,06,57,18.60
2021,08,16,06,58,18.50
2021,08,16,06,59,18.30
2021,08,16,07,00,18.00
2021,08,16,07,01,17.70
2021,08,16,07,02,17.50
2021,08,16,07,03,17.30
2021,08,16,07,04,17.20
2021,08,16,07,05,17.10
2021,08,16,07,06,17.10
2021,08,16,07,07,17.00
2021,08,16,07,08,16.80
2021,08,16,07,09,16.70
2021,08,16,07,10,16.60
2021,08,16,07,11,16.50
2021,08,16,07,12,16.50
2021,08,16,07,13,16.40
2021,08,16,07,14,16.40
2021,08,16,07,15,16.40
2021,08,16,07,16,16.30
2021,08,16,07,17,16.30
2021,08,16,07,18,16.30
2021,08,16,07,19,16.30
2021,08,16,07,20,16.30
2021,08,16,07,21,16.30
2021,08,16,07,22,16.30
2021,08,16,07,23,16.30
2021,08,16,07,24,16.30
2021,08,16,07,25,16.30
2021,08,16,07,26,16.30
2021,08,16,07,27,16.30
2021,08,16,07,28,16.30
2021,08,16,07,29,16.40
2021,08,16,07,30,16.40
2021,08,16,07,31,16.40
2021,08,16,07,32,16.50
2021,08,16,07,33,16.50
2021,08,16,07,34,16.60
2021,08,16,07,35,16.60
2021,08,16,07,36,16.60
2021,08,16,07,37,16.60
2021,08,16,07,38,16.60
2021,08,16,07,39,16.60
2021,08,16,07,40,16.60
2021,08,16,07,41,16.50
2021,08,16,07,42,16.40
2021,08,16,07,43,16.40
2021,08,16,07,44,16.30
2021,08,16,07,45,16.30
2021,08,16,07,46,16.30
2021,08,16,07,47,16.30
2021,08,16,07,48,16.30
2021,08,16,07,49,16.30
2021,08,16,07,50,16.30
2021,08,16,07,51,16.30
2021,08,16,07,52,16.30
2021,08,16,07,53,16.20
2021,08,16,07,54,16.30
2021,08,16,07,55,16.30
2021,08,16,07,56,16.30
2021,08,16,07,57,16.30
2021,08,16,07,58,16.30
2021,08,16,07,59,16.20
2021,08,16,08,00,16.20
2021,08,16,08,01,16.30
2021,08,16,08,02,16.30
2021,08,16,08,03,16.30
2021,08,16,08,04,16.30
2021,08,16,08,05,16.30
2021,08,16,08,06,16.30
2021,08,16,08,07,16.30
2021,08,16,08,08,16.30
2021,08,16,08,09,16.30
2021,08,16,08,10,16.30
2021,08,16,08,11,16.30
2021,08,16,08,12,16.30
2021,08,16,08,13,16.30
2021,08,16,08,14,16.30
2021,08,16,08,15,16.30
2021,08,16,08,16,16.30
2021,08,16,08,17,16.30
2021,08,16,08,18,16.30
2021,08,16,08,19,16.40
2021,08,16,08,20,16.40
2021,08,16,08,21,16.40
2021,08,16,08,22,16.40
2021,08,16,08,23,16.40
2021,08,16,08,24,16.40
2021,08,16,08,25,16.40
2021,08,16,08,26,16.50
2021,08,16,08,27,16.50
2021,08,16,08,28,16.50
2021,08,16,08,29,16.60
2021,08,16,08,30,16.60
2021,08,16,08,31,16.60
2021,08,16,08,32,16.60
2021,08,16,08,33,16.60
2021,08,16,08,34,16.70
2021,08,16,08,35,16.70
2021,08,16,08,36,16.70
2021,08,16,08,37,16.70
2021,08,16,08,38,16.70
2021,08,16,08,39,16.70
2021,08,16,08,40,16.80
2021,08,16,08,41,16.80
2021,08,16,08,42,16.80
2021,08,16,08,43,16.80
2021,08,16,08,44,16.80
2021,08,16,08,45,16.80
2021,08,16,08,46,16.80
2021,08,16,08,47,16.80
2021,08,16,08,48,16.80
2021,08,16,08,49,16.80
2021,08,16,08,50,16.80
2021,08,16,08,51,16.80
2021,08,16,08,52,16.80
2021,08,16,08,53,16.80
2021,08,16,08,54,16.90
2021,08,16,08,55,16.90
2021,08,16,08,56,16.90
2021,08,16,08,57,16.90
2021,08,16,08,58,16.90
2021,08,16,08,59,17.00
2021,08,16,09,00,17.00
2021,08,16,09,01,17.00
2021,08,16,09,02,17.10
2021,08,16,09,03,17.10
2021,08,16,09,04,17.10
2021,08,16,09,05,17.10
2021,08,16,09,06,17.20
2021,08,16,09,07,17.20
2021,08,16,09,08,17.20
2021,08,16,09,09,17.30
2021,08,16,09,10,17.30
2021,08,16,09,11,17.30
2021,08,16,09,12,17.40
2021,08,16,09,13,17.40
2021,08,16,09,14,17.50
2021,08,16,09,15,17.50
2021,08,16,09,16,17.60
2021,08,16,09,17,17.60
2021,08,16,09,18,17.70
2021,08,16,09,19,17.70
2021,08,16,09,20,17.80
2021,08,16,09,21,17.80
2021,08,16,09,22,17.90
2021,08,16,09,23,17.90
2021,08,16,09,24,18.00
2021,08,16,09,25,18.00
2021,08,16,09,26,18.10
2021,08,16,09,27,18.10
2021,08,16,09,28,18.20
2021,08,16,09,29,18.20
2021,08,16,09,30,18.30
2021,08,16,09,31,18.30
2021,08,16,09,32,18.40
2021,08,16,09,33,18.40
2021,08,16,09,34,18.40
2021,08,16,09,35,18.50
2021,08,16,09,36,18.50
2021,08,16,09,37,18.60
2021,08,16,09,38,18.70
2021,08,16,09,39,18.70
2021,08,16,09,40,18.80
2021,08,16,09,41,18.80
2021,08,16,09,42,18.90
2021,08,16,09,43,18.90
2021,08,16,09,44,19.00
2021,08,16,09,45,19.00
2021,08,16,09,46,19.10
2021,08,16,09,47,19.20
2021,08,16,09,48,19.20
2021,08,16,09,49,19.30
2021,08,16,09,50,19.30
2021,08,16,09,51,19.30
2021,08,16,09,52,19.40
2021,08,16,09,53,19.40
2021,08,16,09,54,19.50
2021,08,16,09,55,19.50
2021,08,16,09,56,19.60
2021,08,16,09,57,19.70
2021,08,16,09,58,19.70
2021,08,16,09,59,19.80
2021,08,16,10,00,19.90
2021,08,16,10,01,19.90
2021,08,16,10,02,20.00
2021,08,16,10,03,20.10
2021,08,16,10,04,20.10
2021,08,16,10,05,20.20
2021,08,16,10,06,20.20
2021,08,16,10,07,20.30
2021,08,16,10,08,20.30
2021,08,16,10,09,20.30
2021,08,16,10,10,20.40
2021,08,16,10,11,20.40
2021,08,16,10,12,20.50
2021,08,16,10,13,20.50
2021,08,16,10,14,20.60
2021,08,16,10,15,20.60
2021,08,16,10,16,20.60
2021,08,16,10,17,20.70
2021,08,16,10,18,20.70
2021,08,16,10,19,20.80
2021,08,16,10,20,20.80
2021,08,16,10,21,20.80
2021,08,16,10,22,20.90
2021,08,16,10,23,20.90
2021,08,16,10,24,20.90
2021,08,16,10,25,20.90
2021,08,16,10,26,21.00
2021,08,16,10,27,21.00
2021,08,16,10,28,21.00
2021,08,16,10,29,20.80
2021,08,16,10,30,20.70
2021,08,16,10,31,20.50
2021,08,16,10,32,20.30
2021,08,16,10,33,20.10
2021,08,16,10,34,20.00
2021,08,16,10,35,19.80
2021,08,16,10,36,19.70
2021,08,16,10,37,19.60
2021,08,16,10,38,19.50
2021,08,16,10,39,19.40
2021,08,16,10,40,19.30
2021,08,16,10,41,19.20
2021,08,16,10,42,19.20
2021,08,16,10,43,19.20
2021,08,16,10,44,19.10
2021,08,16,10,45,19.10
2021,08,16,10,46,19.10
2021,08,16,10,47,19.10
2021,08,16,10,48,19.10
2021,08,16,10,49,19.10
2021,08,16,10,50,19.10
2021,08,16,10,51,19.20
2021,08,16,10,52,19.20
2021,08,16,10,53,19.20
2021,08,16,10,54,19.30
2021,08,16,10,55,19.30
2021,08,16,10,56,19.30
2021,08,16,10,57,19.40
2021,08,16,10,58,19.40
2021,08,16,10,59,19.40
2021,08,16,11,00,19.50
2021,08,16,11,01,19.60
2021,08,16,11,02,19.60
2021,08,16,11,03,19.60
2021,08,16,11,04,19.70
2021,08,16,11,05,19.70
2021,08,16,11,06,19.80
2021,08,16,11,07,19.80
2021,08,16,11,08,19.80
2021,08,16,11,09,19.80
2021,08,16,11,10,19.90
2021,08,16,11,11,19.90
2021,08,16,11,12,20.00
2021,08,16,11,13,20.00
2021,08,16,11,14,20.00
2021,08,16,11,15,20.10
2021,08,16,11,16,20.10
2021,08,16,11,17,20.20
2021,08,16,11,18,20.30
2021,08,16,11,19,20.30
2021,08,16,11,20,20.40
2021,08,16,11,21,20.50
2021,08,16,11,22,20.50
2021,08,16,11,23,20.50
2021,08,16,11,24,20.50
2021,08,16,11,25,20.50
2021,08,16,11,26,20.50
2021,08,16,11,27,20.40
2021,08,16,11,28,20.50
2021,08,16,11,29,20.50
2021,08,16,11,30,20.50
2021,08,16,11,31,20.40
2021,08,16,11,32,20.40
2021,08,16,11,33,20.40
2021,08,16,11,34,20.40
2021,08,16,11,35,20.40
2021,08,16,11,36,20.40
2021,08,16,11,37,20.50
2021,08,16,11,38,20.50
2021,08,16,11,39,20.40
2021,08,16,11,40,20.40
2021,08,16,11,41,20.40
2021,08,16,11,42,20.40
2021,08,16,11,43,20.50
2021,08,16,11,44,20.40
2021,08,16,11,45,20.40
2021,08,16,11,46,20.20
2021,08,16,11,47,20.10
2021,08,16,11,48,20.00
2021,08,16,11,49,20.00
2021,08,16,11,50,19.90
2021,08,16,11,51,19.90
2021,08,16,11,52,20.00
2021,08,16,11,53,20.10
2021,08,16,11,54,20.20
2021,08,16,11,55,20.30
2021,08,16,11,56,20.40
2021,08,16,11,57,20.40
2021,08,16,11,58,20.50
2021,08,16,11,59,20.50
2021,08,16,12,00,20.50
2021,08,16,12,01,20.50
2021,08,16,12,02,20.60
2021,08,16,12,03,20.60
2021,08,16,12,04,20.60
2021,08,16,12,05,20.60
2021,08,16,12,06,20.60
2021,08,16,12,07,20.60
2021,08,16,12,08,20.70
2021,08,16,12,09,20.70
2021,08,16,12,10,20.70
2021,08,16,12,11,20.70
2021,08,16,12,12,20.70
2021,08,16,12,13,20.70
2021,08,16,12,14,20.70
2021,08,16,12,15,20.60
2021,08,16,12,16,20.60
2021,08,16,12,17,20.60
2021,08,16,12,18,20.50
2021,08,16,12,19,20.50
2021,08,16,12,20,20.50
2021,08,16,12,21,20.40
2021,08,16,12,22,20.40
2021,08,16,12,23,20.40
2021,08,16,12,24,20.40
2021,08,16,12,25,20.40
2021,08,16,12,26,20.40
2021,08,16,12,27,20.40
2021,08,16,12,28,20.40
2021,08,16,12,29,20.40
2021,08,16,12,30,20.40
2021,08,16,12,31,20.40
2021,08,16,12,32,20.40
2021,08,16,12,33,20.40
2021,08,16,12,34,20.40
2021,08,16,12,35,20.40
2021,08,16,12,36,20.40
2021,08,16,12,37,20.40
2021,08,16,12,38,20.40
2021,08,16,12,39,20.40
2021,08,16,12,40,20.40
2021,08,16,12,41,20.40
2021,08,16,12,42,20.40
2021,08,16,12,43,20.40
2021,08,16,12,44,20.40
2021,08,16,12,45,20.50
2021,08,16,12,46,20.40
2021,08,16,12,47,20.50
2021,08,16,12,48,20.50
2021,08,16,12,49,20.50
2021,08,16,12,50,20.50
2021,08,16,12,51,20.50
2021,08,16,12,52,20.50
2021,08,16,12,53,20.50
2021,08,16,12,54,20.40
2021,08,16,12,55,20.40
2021,08,16,12,56,20.40
2021,08,16,12,57,20.40
2021,08,16,12,58,20.40
2021,08,16,12,59,20.40
2021,08,16,13,00,20.40
2021,08,16,13,01,20.40
2021,08,16,13,02,20.40
2021,08,16,13,03,20.40
2021,08,16,13,04,20.40
2021,08,16,13,05,20.40
2021,08,16,13,06,20.40
2021,08,16,13,07,20.40
2021,08,16,13,08,20.40
2021,08,16,13,09,20.40
2021,08,16,13,10,20.40
2021,08,16,13,11,20.30
2021,08,16,13,12,20.30
2021,08,16,13,13,20.30
2021,08,16,13,14,20.30
2021,08,16,13,15,20.30
2021,08,16,13,16,20.30
2021,08,16,13,17,20.30
2021,08,16,13,18,20.30
2021,08,16,13,19,20.30
2021,08,16,13,20,20.30
2021,08,16,13,21,20.30
2021,08,16,13,22,20.30
2021,08,16,13,23,20.30
2021,08,16,13,24,20.30
2021,08,16,13,25,20.30
2021,08,16,13,26,20.30
2021,08,16,13,27,20.30
2021,08,16,13,28,20.30
2021,08,16,13,29,20.30
2021,08,16,13,30,20.30
2021,08,16,13,31,20.30
2021,08,16,13,32,20.30
2021,08,16,13,33,20.30
2021,08,16,13,34,20.30
2021,08,16,13,35,20.30
2021,08,16,13,36,20.40
2021,08,16,13,37,20.40
2021,08,16,13,38,20.40
2021,08,16,13,39,20.40
2021,08,16,13,40,20.40
2021,08,16,13,41,20.40
2021,08,16,13,42,20.40
2021,08,16,13,43,20.40
2021,08,16,13,44,20.40
2021,08,16,13,45,20.40
2021,08,16,13,46,20.40
2021,08,16,13,47,20.40
2021,08,16,13,48,20.40
2021,08,16,13,49,20.40
2021,08,16,13,50,20.40
2021,08,16,13,51,20.40
2021,08,16,13,52,20.40
2021,08,16,13,53,20.50
2021,08,16,13,54,20.50
2021,08,16,13,55,20.60
2021,08,16,13,56,20.60
2021,08,16,13,57,20.60
2021,08,16,13,58,20.60
2021,08,16,13,59,20.60
2021,08,16,14,00,20.60
2021,08,16,14,01,20.60
2021,08,16,14,02,20.60
2021,08,16,14,03,20.60
2021,08,16,14,04,20.60
2021,08,16,14,05,20.60
2021,08,16,14,06,20.60
2021,08,16,14,07,20.60
2021,08,16,14,08,20.70
2021,08,16,14,09,20.70
2021,08,16,14,10,20.70
2021,08,16,14,11,20.70
2021,08,16,14,12,20.70
2021,08,16,14,13,20.70
2021,08,16,14,14,20.60
2021,08,16,14,15,20.60
2021,08,16,14,16,20.50
2021,08,16,14,17,20.40
2021,08,16,14,18,20.20
2021,08,16,14,19,19.90
2021,08,16,14,20,19.60
2021,08,16,14,21,19.40
2021,08,16,14,22,19.20
2021,08,16,14,23,19.10
2021,08,16,14,24,18.90
2021,08,16,14,25,18.80
2021,08,16,14,26,18.70
2021,08,16,14,27,18.70
2021,08,16,14,28,18.50
2021,08,16,14,29,18.40
2021,08,16,14,30,18.40
2021,08,16,14,31,18.30
2021,08,16,14,32,18.30
2021,08,16,14,33,18.30
2021,08,16,14,34,18.30
2021,08,16,14,35,18.20
2021,08,16,14,36,18.20
2021,08,16,14,37,18.20
2021,08,16,14,38,18.20
2021,08,16,14,39,18.20
2021,08,16,14,40,18.20
2021,08,16,14,41,18.20
2021,08,16,14,42,18.20
2021,08,16,14,43,18.20
2021,08,16,14,44,18.10
2021,08,16,14,45,18.10
2021,08,16,14,46,18.10
2021,08,16,14,47,18.10
2021,08,16,14,48,18.10
2021,08,16,14,49,18.10
2021,08,16,14,50,18.10
2021,08,16,14,51,18.10
2021,08,16,14,52,18.10
2021,08,16,14,53,18.10
2021,08,16,14,54,18.20
2021,08,16,14,55,18.20
2021,08,16,14,56,18.20
2021,08,16,14,57,18.30
2021,08,16,14,58,18.30
2021,08,16,14,59,18.40
2021,08,16,15,00,18.40
2021,08,16,15,01,18.40
2021,08,16,15,02,18.40
2021,08,16,15,03,18.40
2021,08,16,15,04,18.50
2021,08,16,15,05,18.50
2021,08,16,15,06,18.50
2021,08,16,15,07,18.50
2021,08,16,15,08,18.50
2021,08,16,15,09,18.50
2021,08,16,15,10,18.50
2021,08,16,15,11,18.60
2021,08,16,15,12,18.60
2021,08,16,15,13,18.60
2021,08,16,15,14,18.60
2021,08,16,15,15,18.50
2021,08,16,15,16,18.50
2021,08,16,15,17,18.40
2021,08,16,15,18,18.40
2021,08,16,15,19,18.40
2021,08,16,15,20,18.40
2021,08,16,15,21,18.40
2021,08,16,15,22,18.40
2021,08,16,15,23,18.30
2021,08,16,15,24,18.30
2021,08,16,15,25,18.30
2021,08,16,15,26,18.30
2021,08,16,15,27,18.30
2021,08,16,15,28,18.30
2021,08,16,15,29,18.30
2021,08,16,15,30,18.30
2021,08,16,15,31,18.30
2021,08,16,15,32,18.30
2021,08,16,15,33,18.30
2021,08,16,15,34,18.30
2021,08,16,15,35,18.30
2021,08,16,15,36,18.30
2021,08,16,15,37,18.30
2021,08,16,15,38,18.30
2021,08,16,15,39,18.30
2021,08,16,15,40,18.30
2021,08,16,15,41,18.30
2021,08,16,15,42,18.30
2021,08,16,15,43,18.30
2021,08,16,15,44,18.20
2021,08,16,15,45,18.20
2021,08,16,15,46,18.20
2021,08,16,15,47,18.10
2021,08,16,15,48,18.10
2021,08,16,15,49,18.00
2021,08,16,15,50,17.90
2021,08,16,15,51,17.90
2021,08,16,15,52,17.80
2021,08,16,15,53,17.70
2021,08,16,15,54,17.60
2021,08,16,15,55,17.60
2021,08,16,15,56,17.50
2021,08,16,15,57,17.40
2021,08,16,15,58,17.40
2021,08,16,15,59,17.30
2021,08,16,16,00,17.30
2021,08,16,16,01,17.30
2021,08,16,16,02,17.30
2021,08,16,16,03,17.20
2021,08,16,16,04,17.20
2021,08,16,16,05,17.20
2021,08,16,16,06,17.20
2021,08,16,16,07,17.20
2021,08,16,16,08,17.20
2021,08,16,16,09,17.20
2021,08,16,16,10,17.20
2021,08,16,16,11,17.10
2021,08,16,16,12,17.10
2021,08,16,16,13,17.10
2021,08,16,16,14,17.10
2021,08,16,16,15,17.10
2021,08,16,16,16,17.10
2021,08,16,16,17,17.10
2021,08,16,16,18,17.10
2021,08,16,16,19,17.10
2021,08,16,16,20,17.00
2021,08,16,16,21,17.00
2021,08,16,16,22,17.00
2021,08,16,16,23,17.00
2021,08,16,16,24,17.00
2021,08,16,16,25,17.00
2021,08,16,16,26,16.90
2021,08,16,16,27,16.90
2021,08,16,16,28,16.90
2021,08,16,16,29,16.90
2021,08,16,16,30,16.90
2021,08,16,16,31,16.90
2021,08,16,16,32,16.90
2021,08,16,16,33,16.90
2021,08,16,16,34,16.90
2021,08,16,16,35,16.90
2021,08,16,16,36,16.90
2021,08,16,16,37,16.90
2021,08,16,16,38,16.90
2021,08,16,16,39,16.90
2021,08,16,16,40,16.90
2021,08,16,16,41,16.90
2021,08,16,16,42,16.90
2021,08,16,16,43,16.90
2021,08,16,16,44,16.90
2021,08,16,16,45,17.00
2021,08,16,16,46,17.00
2021,08,16,16,47,17.00
2021,08,16,16,48,17.00
2021,08,16,16,49,17.10
2021,08,16,16,50,17.10
2021,08,16,16,51,17.10
2021,08,16,16,52,17.10
2021,08,16,16,53,17.10
2021,08,16,16,54,17.20
2021,08,16,16,55,17.20
2021,08,16,16,56,17.20
2021,08,16,16,57,17.20
2021,08,16,16,58,17.20
2021,08,16,16,59,17.20
2021,08,16,17,00,17.30
2021,08,16,17,01,17.30
2021,08,16,17,02,17.30
2021,08,16,17,03,17.30
2021,08,16,17,04,17.30
2021,08,16,17,05,17.40
2021,08,16,17,06,17.40
2021,08,16,17,07,17.40
2021,08,16,17,08,17.50
2021,08,16,17,09,17.50
2021,08,16,17,10,17.60
2021,08,16,17,11,17.60
2021,08,16,17,12,17.60
2021,08,16,17,13,17.60
2021,08,16,17,14,17.60
2021,08,16,17,15,17.60
2021,08,16,17,16,17.60
2021,08,16,17,17,17.60
2021,08,16,17,18,17.60
2021,08,16,17,19,17.60